Date String (YYYY-MM-DD hh:mm:ss) UTC,Instrument flags,Ambient pressure (hPa),Sample flow (lpm),Bypass flow (lpm),Sample temperature (°C),Ambient temperature (°C),ASC tube jacket temperature (°C),LED temperature (°C),Box temperature (°C),Sample RH (%),Span deviation,Mass concentration (μg/m³),Mass concentration (μg/m³),Mass concentration (μg/m³)
DateTimeUTC,F1_M11,P_M11,Q1_M11,Q2_M11,T1_M11,T2_M11,T3_M11,T4_M11,T5_M11,U1_M11,ZSPAN_M11,X0_M11,X2_M11,X1_M11
2021-09-15 14:00:00,,0826.5,5.01,0.00,29.4,28.8,00.0,38.5,31.2,23.1,0002.2,0016.28,0008.70,0007.91
2021-09-15 14:01:00,,0826.5,5.01,0.00,29.5,28.8,00.0,38.5,31.2,23.3,0001.8,0015.85,0008.68,0007.91
2021-09-15 14:02:00,,0826.5,4.99,0.00,29.5,28.8,00.0,38.5,31.2,23.4,0001.7,0015.87,0008.72,0007.91
2021-09-15 14:03:00,,0826.5,5.00,0.00,29.5,28.8,00.0,38.5,31.3,23.4,0001.8,0015.25,0008.72,0007.92
2021-09-15 14:04:00,,0826.5,5.00,0.00,29.5,28.8,00.0,38.5,31.3,23.4,0001.9,0014.79,0008.75,0007.91
2021-09-15 14:05:00,,0826.5,4.99,0.00,29.5,28.8,00.0,38.5,31.3,23.5,0002.0,0014.76,0008.75,0007.91
2021-09-15 14:06:00,,0826.5,5.00,0.00,29.5,28.8,00.0,38.5,31.3,23.9,0001.8,0014.77,0008.75,0007.92
2021-09-15 14:07:00,,0826.5,5.00,0.00,29.5,28.8,00.0,38.6,31.3,23.1,0001.9,0014.74,0008.81,0007.94
2021-09-15 14:08:00,,0826.5,4.99,0.00,29.5,28.8,00.0,38.6,31.3,22.7,0001.9,0014.67,0008.82,0007.94
2021-09-15 14:09:00,,0826.5,5.01,0.00,29.6,28.9,00.0,38.6,31.3,22.7,0002.0,0014.88,0008.85,0007.94
2021-09-15 14:10:00,,0826.5,5.01,0.00,29.6,28.9,00.0,38.6,31.4,22.9,0001.8,0014.93,0008.85,0007.92
2021-09-15 14:11:00,,0826.5,5.00,0.00,29.6,28.9,00.0,38.6,31.4,22.7,0001.7,0014.04,0008.85,0007.92
2021-09-15 14:12:00,,0826.5,5.01,0.00,29.6,28.9,00.0,38.6,31.4,22.9,0002.1,0014.23,0008.90,0007.93
2021-09-15 14:13:00,,0826.5,5.00,0.00,29.6,28.9,00.0,38.6,31.4,23.1,0002.1,0014.60,0008.94,0007.96
2021-09-15 14:14:00,,0826.4,5.00,0.00,29.6,28.9,00.0,38.7,31.4,23.3,0002.1,0015.11,0008.98,0008.00
2021-09-15 14:15:00,,0826.5,5.00,0.00,29.6,28.9,00.0,38.7,31.4,23.4,0002.3,0016.12,0008.99,0008.02
2021-09-15 14:16:00,,0826.5,5.00,0.00,29.7,29.0,00.0,38.7,31.4,23.6,0002.6,0016.36,0009.01,0008.03
2021-09-15 14:17:00,,0826.5,5.01,0.00,29.7,29.0,00.0,38.7,31.4,24.8,0002.8,0017.06,0009.02,0008.03
2021-09-15 14:18:00,,0826.5,4.99,0.00,29.7,29.0,00.0,38.7,31.5,24.8,0002.4,0017.31,0009.00,0008.01
2021-09-15 14:19:00,,0826.6,5.00,0.00,29.7,29.0,00.0,38.7,31.5,24.8,0002.3,0017.45,0009.02,0008.00
2021-09-15 14:20:00,,0826.6,5.01,0.00,29.7,29.1,00.0,38.7,31.5,25.0,0002.2,0017.35,0008.97,0007.99
2021-09-15 14:21:00,,0826.5,4.99,0.00,29.8,29.1,00.0,38.7,31.5,25.0,0002.4,0016.67,0008.98,0007.98
2021-09-15 14:22:00,,0826.5,5.01,0.00,29.8,29.1,00.0,38.8,31.6,24.6,0002.5,0016.75,0008.97,0007.94
2021-09-15 14:23:00,,0826.5,5.00,0.00,29.8,29.1,00.0,38.8,31.6,24.6,0002.3,0016.77,0008.89,0007.91
2021-09-15 14:24:00,,0826.5,4.99,0.00,29.8,29.2,00.0,38.8,31.6,24.6,0002.4,0017.15,0008.82,0007.87
2021-09-15 14:25:00,,0826.5,5.01,0.00,29.9,29.2,00.0,38.8,31.7,24.4,0002.6,0016.67,0008.70,0007.78
2021-09-15 14:26:00,,0826.5,5.00,0.00,29.9,29.2,00.0,38.8,31.7,24.4,0002.4,0015.81,0008.64,0007.73
2021-09-15 14:27:00,,0826.6,4.98,0.00,29.9,29.2,00.0,38.9,31.7,24.0,0001.7,0016.55,0008.56,0007.68
2021-09-15 14:28:00,,0826.5,5.01,0.00,29.9,29.2,00.0,38.9,31.7,23.7,0001.6,0015.67,0008.48,0007.65
2021-09-15 14:29:00,,0826.5,4.99,0.00,29.9,29.3,00.0,38.9,31.7,23.7,0001.6,0015.28,0008.46,0007.62
2021-09-15 14:30:00,,0826.5,5.01,0.00,30.0,29.3,00.0,38.9,31.7,23.5,0001.6,0015.14,0008.41,0007.60
2021-09-15 14:31:00,,0826.6,5.00,0.00,30.0,29.3,00.0,39.0,31.8,23.6,0001.7,0015.29,0008.40,0007.59
2021-09-15 14:32:00,,0826.5,4.99,0.00,30.0,29.4,00.0,39.0,31.8,23.4,0001.5,0015.49,0008.37,0007.58
2021-09-15 14:33:00,,0826.6,5.01,0.00,30.0,29.4,00.0,39.0,31.9,23.5,0001.4,0015.26,0008.31,0007.56
2021-09-15 14:34:00,,0826.5,4.99,0.00,30.1,29.4,00.0,39.0,31.9,24.7,0001.6,0014.96,0008.30,0007.56
2021-09-15 14:35:00,,0826.5,4.99,0.00,30.1,29.4,00.0,39.1,31.9,25.2,0001.6,0013.94,0008.26,0007.54
2021-09-15 14:36:00,,0826.5,5.01,0.00,30.1,29.4,00.0,39.1,31.9,24.6,0001.8,0013.87,0008.29,0007.57
2021-09-15 14:37:00,,0826.5,4.99,0.00,30.1,29.4,00.0,39.1,31.9,24.4,0002.1,0013.93,0008.30,0007.61
2021-09-15 14:38:00,,0826.5,5.00,0.00,30.1,29.4,00.0,39.1,31.9,24.9,0002.6,0013.20,0008.34,0007.63
2021-09-15 14:39:00,,0826.5,4.99,0.00,30.1,29.5,00.0,39.1,31.9,24.7,0002.5,0013.07,0008.36,0007.64
2021-09-15 14:40:00,,0826.5,5.01,0.00,30.2,29.5,00.0,39.2,31.9,24.9,0002.6,0013.22,0008.34,0007.64
2021-09-15 14:41:00,,0826.5,4.99,0.00,30.2,29.5,00.0,39.2,32.0,25.0,0002.6,0013.43,0008.34,0007.64
2021-09-15 14:42:00,,0826.5,5.00,0.00,30.2,29.5,00.0,39.2,32.0,25.2,0002.7,0013.18,0008.35,0007.65
2021-09-15 14:43:00,,0826.5,5.01,0.00,30.2,29.5,00.0,39.2,32.0,25.0,0003.0,0012.87,0008.30,0007.64
2021-09-15 14:44:00,,0826.5,4.99,0.00,30.2,29.5,00.0,39.2,32.0,24.9,0002.9,0012.86,0008.31,0007.64
2021-09-15 14:45:00,,0826.5,5.00,0.00,30.2,29.5,00.0,39.2,32.0,24.1,0002.7,0012.92,0008.31,0007.63
2021-09-15 14:46:00,,0826.5,4.99,0.00,30.2,29.5,00.0,39.2,32.0,24.7,0002.8,0013.34,0008.35,0007.63
2021-09-15 14:47:00,,0826.4,5.02,0.00,30.3,29.5,00.0,39.3,32.0,25.3,0002.6,0013.71,0008.38,0007.61
2021-09-15 14:48:00,,0826.4,5.00,0.00,30.3,29.5,00.0,39.3,32.0,25.0,0002.2,0013.50,0008.39,0007.60
2021-09-15 14:49:00,,0826.4,4.99,0.00,30.3,29.5,00.0,39.3,32.0,24.9,0001.8,0013.72,0008.40,0007.59
2021-09-15 14:50:00,,0826.4,5.01,0.00,30.3,29.5,00.0,39.3,32.0,25.0,0001.8,0014.05,0008.43,0007.58
2021-09-15 14:51:00,,0826.5,4.99,0.00,30.3,29.5,00.0,39.3,32.0,25.0,0001.9,0013.88,0008.45,0007.57
2021-09-15 14:52:00,,0826.5,5.02,0.00,30.3,29.5,00.0,39.3,32.0,24.7,0002.0,0013.99,0008.48,0007.56
2021-09-15 14:53:00,,0826.5,4.99,0.00,30.3,29.5,00.0,39.3,32.0,24.7,0002.0,0014.83,0008.47,0007.55
2021-09-15 14:54:00,,0826.5,5.00,0.00,30.3,29.5,00.0,39.4,32.1,25.0,0001.5,0015.01,0008.54,0007.56
2021-09-15 14:55:00,,0826.5,5.00,0.00,30.3,29.5,00.0,39.4,32.0,24.9,0001.4,0015.15,0008.60,0007.59
2021-09-15 14:56:00,,0826.5,4.98,0.00,30.3,29.6,00.0,39.4,32.0,24.9,0001.6,0015.33,0008.62,0007.60
2021-09-15 14:57:00,,0826.5,5.01,0.00,30.3,29.6,00.0,39.4,32.0,25.1,0001.4,0015.04,0008.59,0007.59
2021-09-15 14:58:00,,0826.5,4.99,0.00,30.3,29.6,00.0,39.4,32.1,24.8,0001.3,0014.96,0008.58,0007.61
2021-09-15 14:59:00,,0826.5,5.00,0.00,30.4,29.6,00.0,39.4,32.1,24.8,0001.5,0015.12,0008.55,0007.63
